{"data":{"norad_id":67234,"intl_designator":"2025-310A","name":"OBZOR-R 1","alt_names":[],"object_type":"PAYLOAD","status":"ACTIVE","operator":null,"country":"CIS","launch_date":"2025-12-25","launch_site_code":"PLMSC","launch_vehicle":null,"mission":null,"orbit_class":"UNKNOWN","rcs_meters":null,"size_class":null,"mass_kg":null,"dimensions":null,"purposes":[],"wikipedia_slug":null,"has_3d_model":false,"image_url":null,"decayed_at":null,"tle_current":{"epoch":"2026-05-24T23:21:39.845376Z","epoch_age_seconds":80659,"freshness":"FRESH","line1":"1 67234U 25310A   26144.97337784  .00000114  00000+0  23863-4 0  9999","line2":"2 67234  97.9648 152.5948 0001332  77.1073 283.0285 14.75876797 22200","mean_motion":14.75876797,"eccentricity":0.0001332,"inclination_deg":97.9648,"raan_deg":152.5948,"arg_perigee_deg":77.1073,"mean_anomaly_deg":283.0285,"bstar":2.3863e-5,"rev_number":2220,"period_min":97.569119788798,"perigee_km":641.43424222856,"apogee_km":643.30450512651,"semimajor_km":7020.5063736775,"source":"CELESTRAK","updated_at":"2026-05-25T13:38:06.820903Z"}}}